Amsterdam, Netherlands

11:55 AM CET on December 09, 2019 (GMT +0100)
Schiphol

Weather History for EHAM - August, 2019

Change the Weather History Date:

Thursday, August 1, 2019

  Actual Average Record
Temperature  
Mean Temperature 66 °F -  
Max Temperature 71 °F 69 °F 87 °F (1999)
Min Temperature 60 °F 55 °F 48 °F (2011)
Growing Degree Days 16 (Base 50)    
Moisture  
Dew Point 59 °F    
Average Humidity 80    
Maximum Humidity 94    
Minimum Humidity 64    
Precipitation  
Precipitation 0.04 in - - ()
Sea Level Pressure  
Sea Level Pressure 29.98 in    
Wind  
Wind Speed 11 mph ()    
Max Wind Speed 20 mph    
Max Gust Speed -    
Visibility 8.0 miles    
Events Rain    
Averages and records for this station are not official NWS values.
T = Trace of Precipitation, MM = Missing Value Source: Averaged Metar Reports

Daily Weather History Graph

Daily Weather History Graph

Search for Another Location

Airport or City:

Astronomy

Aug. 01, 2019 Rise Set
Actual Time 6:00 AM CEST 9:32 PM CEST
Civil Twilight 5:19 AM CEST 10:14 PM CEST
Nautical Twilight 4:21 AM CEST 11:10 PM CEST
Astronomical Twilight 2:56 AM CEST 12:33 AM CEST
Moon 6:01 AM CEST (8/1) 10:06 PM CEST (8/1)
Length of Visible Light 16h 55m
Length of Day
15h 31m
New Moon, 0% of the Moon is Illuminated
Aug 1
New Moon
Aug 7
First Quarter
Aug 15
Full
Aug 23
Last Quarter
Aug 30
New

Hourly Weather History & Observations

Time (CEST) Temp. Dew Point Humidity Pressure Visibility Wind Dir Wind Speed Gust Speed Precip Events Conditions
12:25 AM 60.8 °F 53.6 °F 77% 29.98 in - South 10.4 mph - N/A   Clear
12:55 AM 60.8 °F 53.6 °F 77% 29.98 in - South 10.4 mph - N/A   Clear
1:00 AM 61 °F 54 °F 71% 29.99 in 19 mi South 8.9 mph - -   Partly Cloudy
1:25 AM 60.8 °F 53.6 °F 77% 29.98 in 6.2 mi South 9.2 mph - N/A Rain Light Rain Showers
1:55 AM 60.8 °F 53.6 °F 77% 29.98 in 6.2 mi South 10.4 mph - N/A Rain Light Rain Showers
2:00 AM 61 °F 55 °F 73% 29.99 in 22 mi South 11.2 mph - - Rain Light Rain Showers
2:25 AM 60.8 °F 57.2 °F 88% 29.98 in 5.6 mi South 9.2 mph - N/A Rain Light Rain Showers
2:55 AM 60.8 °F 57.2 °F 88% 29.98 in 6.2 mi South 8.1 mph - N/A Rain Light Rain Showers
3:00 AM 61 °F 57 °F 83% 29.98 in 16 mi South 8.9 mph - - Rain Light Rain
3:25 AM 60.8 °F 57.2 °F 88% 29.98 in 6.2 mi South 9.2 mph - N/A Rain Light Rain Showers
3:55 AM 60.8 °F 57.2 °F 88% 29.95 in 6.2 mi South 9.2 mph - N/A Rain Light Rain Showers
4:25 AM 60.8 °F 57.2 °F 88% 29.95 in 6.2 mi South 10.4 mph - N/A   Scattered Clouds
4:55 AM 60.8 °F 57.2 °F 88% 29.95 in 6.2 mi South 9.2 mph - N/A   Scattered Clouds
5:00 AM 62 °F 58 °F 82% 29.97 in 15 mi South 8.9 mph - - Rain Rain
5:25 AM 60.8 °F 57.2 °F 88% 29.95 in 6.2 mi South 9.2 mph - N/A   Scattered Clouds
5:55 AM 60.8 °F 57.2 °F 88% 29.95 in 6.2 mi South 10.4 mph - N/A   Scattered Clouds
6:00 AM 61 °F 58 °F 87% 29.96 in 11 mi South 11.2 mph - -   Partly Cloudy
6:25 AM 60.8 °F 59.0 °F 94% 29.95 in 6.2 mi South 10.4 mph - N/A   Scattered Clouds
6:55 AM 60.8 °F 59.0 °F 94% 29.95 in 6.2 mi South 8.1 mph - N/A   Scattered Clouds
7:00 AM 62 °F 59 °F 87% 29.97 in 7 mi South 8.9 mph - -   Partly Cloudy
7:25 AM 62.6 °F 59.0 °F 88% 29.95 in 6.2 mi South 9.2 mph - N/A Rain Light Rain Showers
7:55 AM 62.6 °F 60.8 °F 94% 29.95 in 3.7 mi SSW 11.5 mph - N/A Rain Rain Showers
8:25 AM 62.6 °F 60.8 °F 94% 29.95 in 4.3 mi SSW 11.5 mph - N/A Rain Rain Showers
8:55 AM 64.4 °F 60.8 °F 88% 29.95 in 6.2 mi SSW 12.7 mph - N/A Rain Light Rain Showers
9:00 AM 64 °F 62 °F 90% 29.97 in 8 mi SSW 11.2 mph - - Rain Rain
9:25 AM 66.2 °F 62.6 °F 88% 29.95 in 4.3 mi SSW 12.7 mph - N/A Rain Rain Showers
9:55 AM 64.4 °F 60.8 °F 88% 29.95 in 5.0 mi West 11.5 mph - N/A Rain Light Rain Showers
10:25 AM 66.2 °F 62.6 °F 88% 29.95 in 6.2 mi SW 10.4 mph - N/A   Partly Cloudy
10:55 AM 66.2 °F 60.8 °F 83% 29.98 in 6.2 mi West 12.7 mph - N/A   Partly Cloudy
11:25 AM 69.8 °F 62.6 °F 78% 29.98 in 6.2 mi WSW 13.8 mph - N/A   Scattered Clouds
11:55 AM 68.0 °F 60.8 °F 78% 29.98 in 6.2 mi WSW 13.8 mph - N/A   Scattered Clouds
12:00 PM 69 °F 61 °F 69% 29.98 in 13 mi WSW 15.7 mph - -   Partly Cloudy
12:25 PM 68.0 °F 59.0 °F 73% 29.98 in 6.2 mi West 17.3 mph - N/A   Scattered Clouds
12:55 PM 68.0 °F 59.0 °F 73% 29.98 in 6.2 mi West 19.6 mph - N/A   Scattered Clouds
1:00 PM 70 °F 60 °F 64% 29.99 in 19 mi WSW 17.9 mph - -   Partly Cloudy
1:25 PM 69.8 °F 60.8 °F 73% 29.98 in 6.2 mi West 17.3 mph - N/A   Scattered Clouds
1:55 PM 69.8 °F 60.8 °F 73% 29.98 in 6.2 mi West 16.1 mph - N/A   Scattered Clouds
2:00 PM 69 °F 60 °F 66% 30.00 in 16 mi West 15.7 mph - -   Partly Cloudy
2:25 PM 69.8 °F 60.8 °F 73% 29.98 in 6.2 mi West 19.6 mph - N/A   Scattered Clouds
2:55 PM 69.8 °F 60.8 °F 73% 29.98 in 6.2 mi West 17.3 mph - N/A   Scattered Clouds
3:25 PM 69.8 °F 60.8 °F 73% 30.01 in 6.2 mi West 16.1 mph - N/A   Mostly Cloudy
3:55 PM 68.0 °F 59.0 °F 73% 29.98 in 6.2 mi West 17.3 mph - N/A   Scattered Clouds
4:25 PM 69.8 °F 59.0 °F 68% 29.98 in 6.2 mi West 17.3 mph - N/A   Scattered Clouds
4:55 PM 68.0 °F 59.0 °F 73% 30.01 in 6.2 mi West 17.3 mph - N/A   Scattered Clouds
5:00 PM 69 °F 60 °F 66% 30.01 in 17 mi West 17.9 mph - -   Partly Cloudy
5:25 PM 68.0 °F 59.0 °F 73% 30.01 in 6.2 mi West 17.3 mph - N/A   Scattered Clouds
5:55 PM 68.0 °F 59.0 °F 73% 29.98 in 6.2 mi West 17.3 mph - N/A   Scattered Clouds
6:00 PM 68 °F 60 °F 69% 30.00 in 15 mi West 15.7 mph - -   Partly Cloudy
6:25 PM 68.0 °F 59.0 °F 73% 29.98 in 6.2 mi West 13.8 mph - N/A   Scattered Clouds
6:55 PM 68.0 °F 59.0 °F 73% 29.98 in 6.2 mi West 16.1 mph - N/A   Scattered Clouds
7:25 PM 68.0 °F 59.0 °F 73% 29.98 in 6.2 mi West 15.0 mph - N/A   Scattered Clouds
7:55 PM 66.2 °F 59.0 °F 78% 29.98 in 6.2 mi West 15.0 mph - N/A   Scattered Clouds
8:00 PM 67 °F 60 °F 70% 30.00 in 14 mi West 13.4 mph - -   Partly Cloudy
8:25 PM 66.2 °F 59.0 °F 78% 29.98 in 6.2 mi West 15.0 mph - N/A   Scattered Clouds
8:55 PM 66.2 °F 59.0 °F 78% 29.98 in 6.2 mi West 15.0 mph - N/A   Partly Cloudy
9:25 PM 66.2 °F 59.0 °F 78% 29.98 in 6.2 mi West 11.5 mph - N/A   Partly Cloudy
9:55 PM 64.4 °F 59.0 °F 83% 29.98 in 6.2 mi West 11.5 mph - N/A   Partly Cloudy
10:00 PM 64 °F 59 °F 78% 30.01 in 16 mi West 11.2 mph - -   Partly Cloudy
10:25 PM 64.4 °F 59.0 °F 83% 30.01 in 6.2 mi West 9.2 mph - N/A   Partly Cloudy
10:55 PM 64.4 °F 59.0 °F 83% 30.01 in 6.2 mi WSW 10.4 mph - N/A   Partly Cloudy
11:00 PM 64 °F 59 °F 79% 30.01 in 16 mi WSW 8.9 mph - -   Partly Cloudy
11:25 PM 62.6 °F 59.0 °F 88% 30.01 in 6.2 mi WSW 8.1 mph - N/A   Partly Cloudy
11:55 PM 62.6 °F 59.0 °F 88% 30.01 in 6.2 mi WSW 9.2 mph - N/A   Partly Cloudy